^^
Meteo Knjazevac Station Historical Data
Daily Summary for August 23, 2021 Units:  Metric    English   Both
Daily Weekly Monthly Yearly Custom
  High: Low: Average:
Temperature: 10.4 °C 9.3 °C 9.9 °C
Dew Point: 5.8 °C 4.7 °C 5.2 °C
Humidity: 74% 70% 72%
Wind Speed: 14.5km/h 3.2km/h 9.7km/h
Wind Gust: 35.4km/h - -
Wind- - SSE
Pressure: 1014.4 hPa 1011.7 hPa -
Precipitation: 0 mm    
Historical Graphs
 
 
Tabular Data for August 23, 2021
Time Temperature Dew Point Pressure Wind Wind Speed Wind Gust Humidity Rainfall Rate (Hourly) solar Conditions
00:00 10.2 °C 5 °C 1014.4 hPa SSE 9.7 km/h 19.3 km/h 70% 0 mm 0 W/m2
00:10 10.2 °C 5.3 °C 1014.4 hPa SSE 11.3 km/h 20.9 km/h 72% 0 mm 0 W/m2
00:20 10.3 °C 5.1 °C 1014.4 hPa SSE 11.3 km/h 27.4 km/h 70% 0 mm 0 W/m2
00:30 10.4 °C 5.2 °C 1014.1 hPa SSE 8 km/h 30.6 km/h 70% 0 mm 0 W/m2
00:40 10.4 °C 5.2 °C 1014.1 hPa SSE 8 km/h 17.7 km/h 70% 0 mm 0 W/m2
00:50 10.2 °C 4.9 °C 1014.1 hPa SSE 4.8 km/h 19.3 km/h 70% 0 mm 0 W/m2
01:00 10 °C 5.2 °C 1014.1 hPa SSE 3.2 km/h 16.1 km/h 72% 0 mm 0 W/m2
01:10 9.8 °C 5 °C 1013.8 hPa South 8 km/h 16.1 km/h 72% 0 mm 0 W/m2
01:20 9.6 °C 4.8 °C 1013.8 hPa SSW 3.2 km/h 9.7 km/h 72% 0 mm 0 W/m2
01:30 9.4 °C 4.8 °C 1013.8 hPa South 8 km/h 12.9 km/h 73% 0 mm 0 W/m2
01:40 9.3 °C 4.7 °C 1013.8 hPa SSE 8 km/h 16.1 km/h 73% 0 mm 0 W/m2
01:50 9.3 °C 4.7 °C 1013.8 hPa SSE 8 km/h 19.3 km/h 73% 0 mm 0 W/m2
02:00 9.5 °C 4.9 °C 1013.8 hPa SSE 4.8 km/h 19.3 km/h 73% 0 mm 0 W/m2
02:10 9.6 °C 5 °C 1013.8 hPa SSE 4.8 km/h 17.7 km/h 73% 0 mm 0 W/m2
02:20 9.7 °C 4.9 °C 1013.4 hPa SE 8 km/h 19.3 km/h 72% 0 mm 0 W/m2
02:30 9.9 °C 5.1 °C 1013.4 hPa SSE 8 km/h 19.3 km/h 72% 0 mm 0 W/m2
02:40 10 °C 5.2 °C 1013.4 hPa SSE 8 km/h 22.5 km/h 72% 0 mm 0 W/m2
02:50 10.2 °C 5.4 °C 1013.1 hPa SSE 14.5 km/h 25.7 km/h 72% 0 mm 0 W/m2
03:00 10.2 °C 5.4 °C 1013.1 hPa SSE 11.3 km/h 24.1 km/h 72% 0 mm 0 W/m2
03:10 10.2 °C 5.4 °C 1012.8 hPa SSE 8 km/h 20.9 km/h 72% 0 mm 0 W/m2
03:20 10.2 °C 5.4 °C 1012.8 hPa SSE 12.9 km/h 24.1 km/h 72% 0 mm 0 W/m2
03:30 10.3 °C 5.4 °C 1013.1 hPa SSE 12.9 km/h 27.4 km/h 72% 0 mm 0 W/m2
03:40 10.4 °C 5.2 °C 1012.8 hPa SSE 14.5 km/h 33.8 km/h 70% 0 mm 0 W/m2
03:50 10.4 °C 5.2 °C 1013.1 hPa SSE 11.3 km/h 32.2 km/h 70% 0 mm 0 W/m2
04:00 10.2 °C 5.4 °C 1013.1 hPa SSE 12.9 km/h 24.1 km/h 72% 0 mm 0 W/m2
04:10 10.1 °C 5.3 °C 1013.1 hPa South 11.3 km/h 24.1 km/h 72% 0 mm 0 W/m2
04:20 9.9 °C 5.3 °C 1013.1 hPa South 4.8 km/h 22.5 km/h 73% 0 mm 0 W/m2
04:30 9.8 °C 5.2 °C 1013.1 hPa South 8 km/h 20.9 km/h 73% 0 mm 0 W/m2
04:40 9.7 °C 5.1 °C 1013.1 hPa SSE 4.8 km/h 19.3 km/h 73% 0 mm 0 W/m2
04:50 9.6 °C 5.2 °C 1012.8 hPa South 8 km/h 16.1 km/h 74% 0 mm 0 W/m2
05:00 9.7 °C 5.3 °C 1012.8 hPa SSE 9.7 km/h 20.9 km/h 74% 0 mm 0 W/m2
05:10 9.8 °C 5.2 °C 1012.8 hPa SSE 9.7 km/h 24.1 km/h 73% 0 mm 0 W/m2
05:20 9.8 °C 5.2 °C 1012.8 hPa SSE 8 km/h 22.5 km/h 73% 0 mm 0 W/m2
05:30 9.7 °C 5.3 °C 1012.4 hPa SSE 9.7 km/h 19.3 km/h 74% 0 mm 0 W/m2
05:40 9.7 °C 5.3 °C 1012.1 hPa SSE 9.7 km/h 29 km/h 74% 0 mm 0 W/m2
05:50 9.7 °C 5.3 °C 1012.4 hPa SSE 9.7 km/h 20.9 km/h 74% 0 mm 0 W/m2
06:00 9.7 °C 5.1 °C 1012.1 hPa South 11.3 km/h 27.4 km/h 73% 0 mm 0 W/m2
06:10 9.7 °C 5.1 °C 1011.7 hPa SSE 8 km/h 27.4 km/h 73% 0 mm 0 W/m2
06:20 9.7 °C 5.1 °C 1011.7 hPa SSE 12.9 km/h 35.4 km/h 73% 0 mm 0 W/m2
06:30 9.7 °C 5.1 °C 1011.7 hPa SSE 12.9 km/h 35.4 km/h 73% 0 mm 0 W/m2
06:40 9.7 °C 5.1 °C 1011.7 hPa SSE 11.3 km/h 25.7 km/h 73% 0 mm 0 W/m2
06:50 9.7 °C 5.1 °C 1011.7 hPa SSE 14.5 km/h 25.7 km/h 73% 0 mm 0 W/m2
07:00 9.8 °C 5.2 °C 1011.7 hPa SE 12.9 km/h 27.4 km/h 73% 0 mm 2 W/m2
07:10 9.9 °C 5.3 °C 1011.7 hPa SE 9.7 km/h 30.6 km/h 73% 0 mm 4 W/m2
07:20 9.9 °C 5.3 °C 1011.7 hPa SE 11.3 km/h 27.4 km/h 73% 0 mm 12 W/m2
07:30 10 °C 5.4 °C 1011.7 hPa SE 12.9 km/h 24.1 km/h 73% 0 mm 19 W/m2
07:50 10.1 °C 5.5 °C 1011.7 hPa SSE 12.9 km/h 27.4 km/h 73% 0 mm 40 W/m2
08:00 10.2 °C 5.6 °C 1011.7 hPa SSE 12.9 km/h 27.4 km/h 73% 0 mm 54 W/m2
08:10 10.3 °C 5.7 °C 1011.7 hPa SSE 14.5 km/h 32.2 km/h 73% 0 mm 67 W/m2
08:20 10.4 °C 5.8 °C 1011.7 hPa SSE 9.7 km/h 30.6 km/h 73% 0 mm 83 W/m2
Knjazevac, Serbia
Compliments of Weather Underground - 2 mb